1284595225853,3.24195
1284595285853,3.24585
1284595345853,3.19540
1284595405853,3.23325
1284595465853,3.23985
1284595525853,3.21618
1284595585853,3.25510
1284595645853,3.21570
1284595705853,3.20741
1284595765853,3.20521
1284595825853,3.25204
1284595885853,3.24038
1284595945853,3.22324
1284596005853,3.20191
1284596065853,3.23247
1284596125853,3.24387
1284596185853,3.20955
1284596245853,3.20268
1284596305853,3.23657
1284596365853,3.21961
1284596425853,3.21244
1284596485853,3.20625
1284596545853,3.20440
1284596605853,3.23673
1284596665853,3.20200
1284596725853,3.21560
1284596785853,3.23652
1284596845853,3.21386
1284596905853,3.21256
1284596965853,3.20248
1284597025853,3.19542
1284597085853,3.19664
1284597145853,3.22578
1284597205853,3.18439
1284597265853,3.24633
1284597325853,3.19079
1284597385853,3.23038
1284597445853,3.19422
1284597505853,3.22543
1284597565853,3.22368
1284597625853,3.21762
1284597685853,3.18479
1284597745853,3.20123
1284597805853,3.23860
1284597865853,3.22024
1284597925853,3.20066
1284597985853,3.19758
1284598045853,3.21504
1284598105853,3.18834
1284598165853,3.19699
1284598225853,3.18999
1284598285853,3.21452
1284598345853,3.19567
1284598405853,3.20794
1284598465853,3.17270
1284598525853,3.20803
1284598585853,3.17522
1284598645853,3.18032
1284598705853,3.18343
1284598765853,3.18350
1284598825865,3.18404
1284598885865,3.19057
1284598945865,3.19412
1284599005865,3.13759
1284599065865,3.17977
1284599125865,3.19841
1284599185865,3.19592
1284599245865,3.16747
1284599305865,3.15126
1284599365865,3.14688
1284599425865,3.18328
1284599485865,3.17654
1284599545865,3.18832
1284599605865,3.19587
1284599665865,3.18816
1284599725865,3.18196
1284599785865,3.19312
1284599845865,3.18821
1284599905865,3.19419
1284599965865,3.16531
1284600025865,3.19795
1284600085865,3.19082
1284600145865,3.16482
1284600205865,3.18052
1284600265865,3.19192
1284600325865,3.17123
1284600385865,3.18581
1284600445865,3.20855
1284600505865,3.18611
1284600565865,3.20776
1284600625865,3.18291
1284600685865,3.21143
1284600745865,3.20093
1284600805865,3.19533
1284600865865,3.18005
1284600925865,3.19504
1284600985865,3.16161
1284601045865,3.16871
1284601105865,3.20225
1284601165865,3.19038
1284601225865,3.17824
1284601285865,3.18654
1284601345865,3.20588
1284601405865,3.18428
1284601465865,3.18296
1284601525865,3.16770
1284601585865,3.21510
1284601645865,3.20165
1284601705865,3.19192
1284601765865,3.20996
1284601825865,3.20183
1284601885865,3.19027
1284601945865,3.17766
1284602005865,3.17909
1284602065865,3.18455
1284602125865,3.21109
1284602185865,3.17039
1284602245865,3.20112
1284602305865,3.20873
1284602365865,3.17151
1284602425877,3.19260
1284602485877,3.20159
1284602545877,3.20281
1284602605877,3.17733
1284602665877,3.19484
1284602725877,3.19327
1284602785877,3.18500
1284602845877,3.20715
1284602905877,3.19584
1284602965877,3.20495
1284603025877,3.22531
1284603085877,3.21130
1284603145876,3.22389
1284603205876,3.23211
1284603265877,3.20378
1284603325877,3.21672
1284603385877,3.20803
1284603445877,3.21844
1284603505877,3.16942
1284603565877,3.20859
1284603625877,3.18984
1284603685877,3.21196
1284603745877,3.19759
1284603805877,3.20693
1284603865877,3.25498
1284603925877,3.20884
1284603985877,3.21566
1284604045877,3.19148
1284604105877,3.22449
1284604165877,3.26029
1284604225877,3.23772
1284604285877,3.21525
1284604345877,3.21946
1284604405877,3.22599
1284604465876,3.24342
1284604525876,3.25919
1284604585876,3.20396
1284604645877,3.23778
1284604705877,3.21374
1284604765877,3.22059
1284604825877,3.21072
1284604885877,3.23378
1284604945877,3.23004
1284605005877,3.20455
1284605065877,3.21193
1284605125877,3.22725
1284605185877,3.22960
1284605245877,3.21372
1284605305877,3.22654
1284605365877,3.21366
1284605425877,3.21797
1284605485877,3.23371
1284605545877,3.21970
1284605605877,3.24401
1284605665877,3.22288
1284605725877,3.25077
1284605785877,3.21109
1284605845876,3.22677
1284605905876,3.24007
1284605965877,3.22389
1284606025888,3.22192
1284606085888,3.22962
1284606145888,3.23017
1284606205888,3.24885
1284606265888,3.23529
1284606325888,3.19187
1284606385888,3.20725
1284606445888,3.26096
1284606505888,3.22180
1284606565888,3.23472
1284606625888,3.19884
1284606685888,3.23687
1284606745888,3.24430
1284606805888,3.22726
1284606865888,3.21404
1284606925888,3.23638
1284606985888,3.23387
1284607045888,3.26288
1284607105888,3.22792
1284607165888,3.21724
1284607225888,3.21003
1284607285888,3.22979
1284607345888,3.22736
1284607405888,3.21546
1284607465888,3.22081
1284607525888,3.24290
1284607585888,3.23543
1284607645888,3.23581
1284607705888,3.24092
1284607765888,3.21670
1284607825888,3.26506
1284607885888,3.22080
1284607945888,3.26536
1284608005888,3.25026
1284608065888,3.24051
1284608125888,3.27563
1284608185888,3.24965
1284608245888,3.26589
1284608305888,3.25604
1284608365888,3.26207
1284608425888,3.25492
1284608485888,3.23395
1284608545888,3.24725
1284608605888,3.19811
1284608665888,3.24448
1284608725888,3.25075
1284608785888,3.22951
1284608845888,3.26486
1284608905888,3.21657
1284608965888,3.25185
1284609025888,3.22842
1284609085888,3.24429
1284609145888,3.25074
1284609205888,3.24540
1284609265888,3.25564
1284609325888,3.24348
1284609385888,3.21109
1284609445888,3.22323
1284609505888,3.22061
1284609565888,3.21336
1284609625899,3.24828
1284609685899,3.24847
1284609745899,3.24952
1284609805899,3.28154
1284609865899,3.28065
1284609925899,3.24179
1284609985899,3.25645
1284610045899,3.29197
1284610105899,3.23283
1284610165899,3.26909
1284610225899,3.27140
1284610285899,3.27642
1284610345899,3.26261
1284610405899,3.28166
1284610465899,3.28891
1284610525899,3.26690
1284610585899,3.25235
1284610645899,3.25856
1284610705899,3.26532
1284610765899,3.26813
1284610825899,3.27296
1284610885899,3.24355
1284610945899,3.24545
1284611005899,3.24852
1284611065899,3.24585
1284611125899,3.24717
1284611185899,3.23927
1284611245899,3.23882
1284611305899,3.23536
1284611365899,3.24016
1284611425899,3.24654
1284611485899,3.26597
1284611545899,3.24893
1284611605899,3.21656
1284611665899,3.26797
1284611725899,3.26741
1284611785899,3.25960
1284611845899,3.23569
1284611905899,3.25763
1284611965899,3.25249
1284612025899,3.27843
1284612085899,3.24980
1284612145899,3.25365
1284612205899,3.24257
1284612265899,3.27396
1284612325899,3.23817
1284612385899,3.28059
1284612445899,3.25602
1284612505899,3.30335
1284612565899,3.26994
1284612625899,3.25461
1284612685899,3.25702
1284612745899,3.26133
1284612805899,3.22569
1284612865899,3.26772
1284612925899,3.27054
1284612985899,3.23083
1284613045899,3.23690
1284613105899,3.26663
1284613165899,3.25731
1284613225910,3.22094
1284613285910,3.22614
1284613345910,3.28141
1284613405910,3.26399
1284613465910,3.26876
1284613525910,3.24997
1284613585910,3.26421
1284613645910,3.23775
1284613705910,3.24726
1284613765910,3.24059
1284613825910,3.26480
1284613885910,3.21834
1284613945910,3.23762
1284614005910,3.22919
1284614065910,3.23860
1284614125910,3.22493
1284614185910,3.25569
1284614245910,3.27379
1284614305910,3.24905
1284614365910,3.20604
1284614425910,3.24639
1284614485910,3.23474
1284614545910,3.21766
1284614605910,3.26618
1284614665910,3.23532
1284614725910,3.22282
1284614785910,3.21373
1284614845910,3.21239
1284614905910,3.35703
1284614965910,3.27285
1284615025910,3.25217
1284615085910,3.26431
1284615145910,3.24228
1284615205910,3.21525
1284615265910,3.23875
1284615325910,3.21172
1284615385910,3.25698
1284615445910,3.25811
1284615505910,3.21931
1284615565910,3.23251
1284615625910,3.24226
1284615685910,3.23283
1284615745910,3.19081
1284615805910,3.25791
1284615865910,3.24289
1284615925910,3.23120
1284615985910,3.26310
1284616045910,3.24082
1284616105910,3.21181
1284616165910,3.21882
1284616225910,3.21357
1284616285910,3.24560
1284616345910,3.20701
1284616405910,3.22778
1284616465910,3.27033
1284616525910,3.23060
1284616585910,3.23175
1284616645910,3.22925
1284616705910,3.25399
1284616765910,3.21619
1284616825921,3.25006
1284616885921,3.25721
1284616945921,3.24781
1284617005921,3.25310
1284617065921,3.25704
1284617125921,3.25738
1284617185921,3.22928
1284617245921,3.23736
1284617305921,3.23995
1284617365921,3.24093
1284617425921,3.23415
1284617485921,3.19891
1284617545921,3.25982
1284617605921,3.24597
1284617665921,3.24397
1284617725921,3.23227
1284617785921,3.22619
1284617845921,3.24077
1284617905921,3.25525
1284617965921,3.25459
1284618025921,3.25834
1284618085921,3.26755
1284618145921,3.23588
1284618205921,3.24547
1284618265921,3.23383
1284618325921,3.23968
1284618385921,3.27566
1284618445921,3.22122
1284618505921,3.24435
1284618565921,3.26140
1284618625921,3.27461
1284618685921,3.25868
1284618745921,3.25628
1284629665954,3.23993
1284629725954,3.28275
1284629785954,3.24362
1284629845954,3.25298
1284629905954,3.28560
1284629965954,3.26741
1284630025954,3.27556
1284630085954,3.27387
1284630145954,3.28933
1284630205954,3.30342
1284630265954,3.25560
1284630325954,3.28476
1284630385954,3.26355
1284630445954,3.29140
1284630505954,3.28852
1284630565954,3.30232
1284630625954,3.27427
1284630685954,3.28574
1284630745954,3.28172
1284630805954,3.28615
1284630865954,3.25994
1284630925954,3.29416
1284630985954,3.27940
1284631045954,3.28009
1284631105954,3.30794
1284631165954,3.31431
1284631225966,3.27584
1284631285966,3.29978
1284631345966,3.33554
1284631405966,3.29041
1284631465966,3.29184
1284631525966,3.30649
1284631585966,3.30005
1284631645966,3.34609
1284631705966,3.28285
1284631765966,3.30417
1284631825966,3.31630
1284631885966,3.29376
1284631945966,3.31804
1284632005966,3.31226
1284632065966,3.29750
1284632125966,3.27825
1284632185966,3.31196
1284632245966,3.27540
1284632305966,3.28651
1284632365966,3.30364
1284632425966,3.29025
1284632485966,3.28419
1284632545966,3.29119
1284632605966,3.31221
1284632665966,3.30014
1284632725966,3.31808
1284632785966,3.31138
1284632845966,3.30439
1284632905966,3.29120
1284632965966,3.33906
1284633025966,3.33794
1284633085966,3.30099
1284633145966,3.32479
1284633205966,3.29034
1284633265966,3.26794
1284633325966,3.32838
1284633385966,3.31887
1284633445966,3.30181
1284633505966,3.31932
1284633565966,3.31651
1284633625966,3.30928
1284633685966,3.31278
1284633745966,3.34534
1284633805966,3.28716
1284633865966,3.31761
1284633925966,3.30119
1284633985966,3.32029
1284634045966,3.32348
1284634105966,3.31303
1284634165966,3.29661
1284634225966,3.33794
1284634285966,3.31507
1284634345966,3.29932
1284634405966,3.27905
1284634465966,3.31795
1284634525966,3.31679
1284634585966,3.28714
1284634645966,3.30119
1284634705966,3.32775
1284634765966,3.33846
1284634825977,3.33865
1284634885977,3.32256
1284634945977,3.30980
1284635005977,3.30113
1284635065977,3.81982
1284635125977,3.34136
1284635185977,3.33414
1284635245977,3.36473
1284635305977,3.32947
1284635365977,3.36991
1284635425977,3.34191
1284635485977,3.32749
1284635545977,3.34971
1284635605977,3.33631
1284635665977,3.33193
1284635725977,3.35435
1284635785977,3.33870
1284635845977,3.32409
1284635905977,3.32021
1284635965977,3.30604
1284636025977,3.30720
1284636085977,3.29033
1284636145977,3.32125
1284636205977,3.30910
1284636265977,3.29424
1284636325977,3.36243
1284636385977,3.29688
1284636445977,3.31228
1284636505977,3.30916
1284636565977,3.28356
1284636625977,3.31136
1284636685977,3.29871
1284636745977,3.32181
1284636805977,3.28841
1284636865977,3.31871
1284636925977,3.28127
1284636985977,3.29273
1284637045977,3.26304
1284637105977,3.30277
1284637165977,3.27325
1284637225977,3.27739
1284637285977,3.28527
1284637345977,3.27735
1284637405977,3.29312
1284637465977,3.30422
1284637525977,3.30027
1284637585977,3.30453
1284637645977,3.29222
1284637705977,3.29416
1284637765977,3.25620
1284637825977,3.29127
1284637885977,3.29044
1284637945977,3.28420
1284638005977,3.29944
1284638065977,3.30972
1284638125977,3.28690
1284638185977,3.28643
1284638245977,3.31171
1284638305977,3.27832
1284638365977,3.29951
1284638425989,3.32936
1284638485989,3.26563
1284638545989,3.29949
1284638605989,3.29801
1284638665989,3.28295
1284638725989,3.30580
1284638785989,3.28823
1284638845989,3.28483
1284638905989,3.31376
1284638965989,3.26754
1284639025989,3.30081
1284639085989,3.31724
1284639145989,3.30822
1284639205989,3.30748
1284639265989,3.28356
1284639325989,3.30905
1284639385989,3.29582
1284639445989,3.29852
1284639505989,3.30158
1284639565989,3.28391
1284639625989,3.30048
1284639685989,3.27253
1284639745989,3.27942
1284639805989,3.32171
1284639865989,3.29786
1284639925989,3.30517
1284639985989,3.27601
1284640045989,3.30182
1284640105989,3.30561
1284640165989,3.29011
1284640225989,3.29790
1284640285989,3.28025
1284640345989,3.26947
1284640405989,3.32052
1284640465989,3.27441
1284640525989,3.29710
1284640585989,3.30467
1284640645989,3.30100
1284640705989,3.28395
1284640765989,3.29616
1284640825989,3.27251
1284640885989,3.36978
1284640945989,3.29947
1284641005989,3.29587
1284641065989,3.28400
1284641125989,3.30198
1284641185989,3.31200
1284641245989,3.29015
1284641305989,3.30600
1284641365989,3.30914
1284641425989,3.28407
1284641485989,3.26325
1284641545989,3.30656
1284641605989,3.28471
1284641665989,3.31044
1284641725989,3.29710
1284641785989,3.30212
1284641845989,3.28502
1284641905989,3.30110
1284641965989,3.27917
1284642026001,3.28085
1284642086001,3.31920
1284642146001,3.30017
1284642206001,3.28017
1284642266001,3.28373
1284642326001,3.30067
1284642386001,3.31808
1284642446001,3.30167
1284642506001,3.29865
1284642566001,3.33564
1284642626001,3.29322
1284642686001,3.29816
1284642746001,3.30000
1284642806001,3.30845
1284642866001,3.31780
1284642926001,3.30037
1284642986001,3.30868
1284643046001,3.31695
1284643106001,3.26486
1284643166001,3.27392
1284643226001,3.30062
1284643286001,3.31457
1284643346001,3.28592
1284643406001,3.29018
1284643466001,3.29671
1284643526001,3.26415
1284643586001,3.30496
1284643646001,3.28132
1284643706001,3.31588
1284643766001,3.29732
1284643826001,3.30865
1284643886001,3.26386
1284643946001,3.30218
1284644006001,3.28676
1284644066001,3.30812
1284644126001,3.32726
1284644186001,3.28172
1284644246001,3.30205
1284644306001,3.30951
1284644366001,3.30005
1284644426001,3.30997
1284644486001,3.33540
1284644546001,3.32052
1284644606001,3.32462
1284644666001,3.33429
1284644726001,3.32696
1284644786001,3.30170
1284644846001,3.30974
1284644906001,3.30342
1284644966001,3.29770
1284645026001,3.31931
1284645086001,3.31003
1284645146001,3.31610
1284645206001,3.32713
1284645266001,3.32103
1284645326001,3.31901
1284645386001,3.33816
1284645446001,3.31892
1284645506001,3.30328
1284645566001,3.32423
1284645626014,3.35855
1284645686014,3.31721
1284645746014,3.35167
1284645806014,3.32200
1284645866014,3.32228
1284645926014,3.32653
1284645986014,3.30132
1284646046014,3.31240
1284646106014,3.30115
1284646166014,3.30588
1284646226014,3.30513
1284646286014,3.29039
1284646346014,3.31827
1284646406014,3.30745
1284646466014,3.31863
1284646526014,3.30526
1284646586014,3.31079
1284646646014,3.29808
1284646706014,3.30478
1284646766014,3.35978
1284646826014,3.31932
1284646886014,3.30060
1284646946014,3.29991
1284647006014,3.30511
1284647066014,3.31393
1284647126014,3.31079
1284647186014,3.33422
1284647246014,3.31549
1284647306014,3.31025
1284647366014,3.29289
1284647426014,3.30721
1284647486014,3.30935
1284647546014,3.30046
1284647606014,3.32076
1284647666014,3.31935
1284647726014,3.35118
1284647786014,3.29980
1284647846014,3.29741
1284647906014,3.32288
1284647966014,3.31318
1284648026014,3.29786
1284648086014,3.31299
1284648146014,3.32746
1284648206014,3.30415
1284648266014,3.32379
1284648326014,3.30092
1284648386014,3.33561
1284648446014,3.31006
1284648506014,3.32518
1284648566014,3.29957
1284648626014,3.32128
1284648686014,3.32008
1284648746014,3.34329
1284648806014,3.33925
1284648866014,3.30773
1284648926014,3.33515
1284648986014,3.34941
1284649046014,3.35149
1284649106014,3.33735
1284649166014,3.30281
1284649226026,3.34280
1284649286026,3.31707
1284649346026,3.33277
1284649406026,3.30578
1284649466026,3.32840
1284649526026,3.34825
1284649586026,3.35719
1284649646026,3.32872
1284649706026,3.31500
1284649766026,3.34410
1284649826026,3.35746
1284649886026,3.30045
1284649946026,3.31719
1284650006026,3.28949
1284650066026,3.31399
1284650126026,3.30949
1284650186026,3.35437
1284650246026,3.31885
1284650306026,3.35445
1284650366026,3.33981
1284650426026,3.35193
1284650486026,3.28835
1284650546026,3.30102
1284650606026,3.33886
1284650666026,3.30932
1284650726026,3.32090
1284650786026,3.32306
1284650846026,3.33830
1284650906026,3.30991
1284650966026,3.32286
1284651026026,3.30631
1284651086026,3.32501
1284651146026,3.31082
1284651206026,3.31210
1284651266026,3.31244
1284651326026,3.32073
1284651386026,3.32205
1284651446026,3.29922
1284651506026,3.32112
1284651566026,3.31242
1284651626026,3.30266
1284651686026,3.30859
1284651746026,3.30517
1284651806026,3.31204
1284651866026,3.29819
1284651926026,3.33562
1284651986026,3.31057
1284652046026,3.32338
1284652106026,3.29855
1284652166026,3.33433
1284652226026,3.30563
1284652286026,3.31671
1284652346026,3.31427
1284652406026,3.31024
1284652466026,3.34267
1284652526026,3.32138
1284652586026,3.30474
1284652646026,3.35780
1284652706026,3.31856
1284652766026,3.31712
1284652826039,3.33696
1284652886039,3.33885
1284652946039,3.33116
1284653006039,3.34220
1284653066039,3.33775
1284653126039,3.31652
1284653186039,3.32296
1284653246039,3.31806
1284653306039,3.33430
1284653366039,3.35688
1284653426039,3.35170
1284653486039,3.34189
1284653546039,3.31770
1284653606039,3.32044
1284653666039,3.36235
1284653726039,3.31835
1284653786039,3.32051
1284653846039,3.32653
1284653906039,3.31171
1284653966039,3.32449
1284654026039,3.34473
1284654086039,3.32747
1284654146039,3.32575
1284654206039,3.36677
1284654266039,3.35056
1284654326039,3.29764
1284654386039,3.33590
1284654446039,3.33414
1284654506039,3.33280
1284654566039,3.34728
1284654626039,3.33958
1284654686039,3.32767
1284654746039,3.31805
1284654806039,3.33515
1284654866039,3.34249
1284654926039,3.31788
1284654986039,3.32227
1284655046039,3.32095
1284655106039,3.32923
1284655166039,3.35543
1284655226039,3.31665
1284655286039,3.35585
1284655346039,3.33381
1284655406039,3.33387
1284655466039,3.30077
1284655526039,3.35784
1284655586039,3.30009
1284655646039,3.32671
1284655706039,3.34329
1284655766039,3.30680
1284655826039,3.31878
1284655886039,3.33170
1284655946039,3.34205
1284656006039,3.29306
1284656066039,3.31433
1284656126039,3.32756
1284656186039,3.38777
1284656246039,3.31179
1284656306039,3.30258
1284656366039,3.33086
1284656426052,3.33802
1284656486052,3.33102
1284656546052,3.35021
1284656606052,3.31106
1284656666052,3.30282
1284656726052,3.35758
1284656786052,3.32667
1284656846052,3.32132
1284656906052,3.32322
1284656966052,3.36178
1284657026052,3.32325
1284657086052,3.31795
1284657146052,3.36195
1284657206052,3.35238
1284657266052,3.35363
1284657326052,3.32320
1284657386052,3.35181
1284657446052,3.33257
1284657506052,3.32322
1284657566052,3.31686
1284657626052,3.31480
1284657686052,3.31058
1284657746052,3.33009
1284657806052,3.30912
1284657866052,3.28292
1284657926052,3.30950
1284657986052,3.34405
1284658046052,3.34653
1284658106052,3.32241
1284658166052,3.33792
1284658226052,3.34253
1284658286052,3.32949
1284658346052,3.30845
1284658406052,3.32979
1284658466052,3.31658
1284658526052,3.34426
1284658586052,3.32829
1284658646052,3.29182
1284658706052,3.32143
1284658766052,3.30003
1284658826052,3.32063
1284658886052,3.33343
1284658946052,3.32289
1284659006052,3.32856
1284659066052,3.31563
1284659126052,3.30710
1284659186052,3.30186
1284659246052,3.32956
1284659306052,3.33675
1284659366052,3.30824
1284659426052,3.31227
1284659486052,3.33564
1284659546052,3.30933
1284659606052,3.31839
1284659666052,3.32191
1284659726052,3.35670
1284659786052,3.34758
1284659846052,3.31967
1284659906052,3.32674
1284659966052,3.33157
1284660026065,3.35027
1284660086065,3.33567
1284660146065,3.33614
1284660206065,3.35567
1284660266065,3.31279
1284660326065,3.34478
1284660386065,3.33878
1284660446065,3.35127
1284660506065,3.33397
1284660566065,3.33335
1284660626065,3.33885
1284660686065,3.33050
1284660746065,3.32262
1284660806065,3.35933
1284660866065,3.36217
1284660926065,3.35335
1284660986065,3.34801
1284661046065,3.31056
1284661106065,3.35035
1284661166065,3.34892
1284661226065,3.32261
1284661286065,3.32260
1284661346065,3.33897
1284661406065,3.35591
1284661466065,3.34539
1284661526065,3.34935
1284661586065,3.32976
1284661646065,3.33544
1284661706065,3.34221
1284661766065,3.32537
1284661826065,3.29052
1284661886065,3.34921
1284661946065,3.30388
1284662006065,3.31874
1284662066065,3.32965
1284662126065,3.30515
1284662186065,3.36085
1284662246065,3.34596
1284662306065,3.36565
1284662366065,3.34998
1284662426065,3.35052
1284662486065,3.32786
1284662546065,3.31954
1284662606065,3.38226
1284662666065,3.36841
1284662726065,3.34311
1284662786065,3.32008
1284662846065,3.39133
1284662906065,3.33910
1284662966065,3.36305
1284663026065,3.35336
1284663086065,3.36151
1284663146065,3.32651
1284663206065,3.35552
1284663266065,3.33638
1284663326065,3.37025
1284663386065,3.37064
1284663446065,3.35641
1284663506065,3.35166
1284663566065,3.34604
1284663626079,3.37906
1284663686079,3.37003
1284663746079,3.38381
1284663806079,3.36666
1284663866079,3.34758
1284663926079,3.35037
1284663986079,3.37959
1284664046079,3.36498
1284664106079,3.34608
1284664166079,3.35262
1284664226079,3.33116
1284664286079,3.39092
1284664886079,3.35063
1284664946079,3.37742
1284665006079,3.37090
1284665066079,3.36270
1284665126079,3.37593
1284665186079,3.36517
1284665246079,3.36925
1284665306079,3.39631
1284665366079,3.35426
1284665426079,3.38682
1284665486079,3.36246
1284665546079,3.38305
1284665606079,3.37503
1284665666079,3.37368
1284665726079,3.37632
1284665786079,3.37609
1284665846079,3.35102
1284665906079,3.37698
1284665966079,3.36744
1284666026079,3.36933
1284666086078,3.34344
1284666146078,3.38235
1284666206079,3.39493
1284666266079,3.38718
1284666326079,3.37501
1284666386079,3.38061
1284666446079,3.36982
1284666506079,3.37052
1284666566079,3.36853
1284666626079,3.36546
1284666686079,3.38880
1284666746079,3.37638
1284666806079,3.35039
1284666866079,3.38118
1284666926079,3.36281
1284666986079,3.36794
1284667046079,3.37095
1284667106079,3.37642
1284667166079,3.39130
1284667226092,3.35629
1284667286092,3.36409
1284667346092,3.33619
1284667406092,3.35597
1284667466092,3.37034
1284667526092,3.38026
1284667586092,3.39615
1284667646092,3.37696
1284667706092,3.37627
1284667766092,3.39983
1284667826092,3.38425
1284667886092,3.35904
1284667946092,3.39070
1284668006092,3.37863
1284668066091,3.40495
1284668126091,3.34866
1284668186091,3.36660
1284668246091,3.38022
1284668306092,3.38368
1284668366092,3.36289
1284668426092,3.34104
1284668486092,3.34991
1284668546092,3.40821
1284668606092,3.38060
1284668666092,3.39116
1284668726092,3.40863
1284668786092,3.37832
1284668846092,3.39330
1284668906092,3.38735
1284668966092,3.34606
1284669026092,3.62990
1284669086092,3.37049
1284669146092,3.38146
1284669206092,3.38589
1284669266092,3.37019
1284669326092,3.40072
1284669386091,3.39084
1284669446091,3.37924
1284669506091,3.41167
1284669566091,3.38697
1284669626091,3.36623
1284669686092,3.40164
1284669746092,3.37323
1284669806092,3.38967
1284669866092,3.38708
1284669926092,3.40714
1284669986092,3.36312
1284670046092,3.39229
1284670106092,3.42344
1284670166092,3.36066
1284670226092,3.37604
1284670286092,3.40189
1284670346092,3.40345
1284670406092,3.37292
1284670466092,3.35607
1284670526092,3.38910
1284670586092,3.38989
1284670646092,3.37731
1284670706092,3.42206
1284670766091,3.41731
1284670826104,3.39408
1284670886104,3.42918
1284670946104,3.37321
1284671006104,3.36624
1284671066104,3.38602
1284671126104,3.39661
1284671186104,3.41309
1284671246104,3.37986
1284671306104,3.38050
1284671366104,3.41242
1284671426104,3.39177
1284671486104,3.41069
1284671546104,3.37786
1284671606104,3.39071
1284671666104,3.38931
1284671726104,3.35676
1284671786104,3.34355
1284671846104,3.36334
1284671906104,3.33765
1284671966104,3.33973